Showing default

TOMORROW-S4, 62386

Orbit data source: Space-Track

TOMORROW-S4, 62386 is a payload satellite owned by Tomorrow.io (US) in LEO that was launched on Sat, 21 Dec 2024 UTC via an FALCON 9 launch vehicle from the Air Force Western Test Range (AFWTR). Payloads include a variety of satellites, spacecraft, and rockets equipped with specific instruments for various scientific and technological missions. These include communications satellites like Starlink; space stations such as the ISS; scientific satellites like the Hubble; Earth observation satellites from companies like Planet Labs, Umbra, and HawkEye 360; GPS; miniature CubeSats for education and research; and military/defense satellites.

Loading next visibility...
TOMORROW-S4 details
Identifier
62386, 2024-247K
Orbit
LEO
Last TLE update18 hours ago
Origin
Flag of USTomorrow.io (US)
ManufacturerBlue Canyon
MissionOperational Commercial Communications
Bus & MotorCUBESAT 6U, Unknown motor
Mass12 kg wet, 12 kg dry
Launch date (UTC)
2024-12-21 (2 months ago)
Launch vehicle
FALCON 9
Launch site
Air Force Western Test Range (AFWTR)
Object type
Payload
Rocket body
Debris
Shape & HBRBox, 0.6 m
Radar Cross Section0.154 m², Medium (>0.1 m² and < 1m²)

Expand to show TLE details & history

TLE from 18 hours ago
0 TOMORROW-S4
1 62386U 24247K   25035.52726561  .00014268  00000-0  68090-3 0  9990
2 62386  44.9941 118.3953 0003340 330.0499  30.0189 15.19025753  6999
Epoch: 2025-02-04T12:39Z
Definitive object data (Epoch: 2025-02-04T12:39:15.748Z)
Latitude-0.00004°
Longitude153.64837°
Altitude506.79 km
Speed7.613 km/s
True Right ascension07h 53m 34s
True Declination0° 00' 00"
Sunlit
Object was in full shadow at TLE epoch
Visualization TLE readout
Latitude-34.11632°
Longitude11.88709°
Altitude519.073 km
Speed7.604 km/s
Apparent Right ascension21h 48m 36s
Apparent Declination-37° 10' 06"
Sunlit
Object is in daylight
Visualization observer readout
Local Sidereal Time09:04:16
Azimuth284.072° WNW
Elevation-80.913°
Doppler factor1
Orbital elements
Apogee altitude512.689 km
Perigee altitude508.087 km
Semi-major axis6,888.525 km
Eccentricity0.000334
Inclination44.9941°
RAAN118.3953°
Arg. of periapsis330.0499°
True anomaly30.03805°
Mean anomaly30.0189°
Eccentric anomaly30.02848°
Mean motion3.79624 °/min
BSTAR0.0006809
Orbital period94.83 mins
Loading maneuver chart data...
Loading historical data...
Loading historical data...
Loading historical data...
Loading historical data...
Loading historical data...
Loading historical data...
Loading historical data...

TOMORROW-S4 Visibility forecast

Observer location: undefined°, undefined

Span
Click to sort rows by Start time (UTC) header in descending order
Start Az.
Max El. time (UTC)
Max El. Az.
Max El.
End time (UTC)
End Az.
5 mins2025-02-05 07:45:59.865Z190.947° SSW2025-02-05 07:48:59.865Z136.444° SSE20.593°2025-02-05 07:50:59.865Z98.854° ESE
6 mins2025-02-05 09:24:59.865Z250.688° W2025-02-05 09:27:59.865Z18.001° NNE44.386°2025-02-05 09:30:59.865Z64.696° ENE
6 mins2025-02-05 11:04:59.865Z293.805° NW2025-02-05 11:07:59.865Z15.128° NNE31.076°2025-02-05 11:10:59.865Z65.054° ENE
6 mins2025-02-05 12:44:59.865Z305.494° NW2025-02-05 12:46:59.865Z354.634° N37.211°2025-02-05 12:50:59.865Z91.316° ESE
6 mins2025-02-05 14:23:59.865Z279.463° WNW2025-02-05 14:26:59.865Z196.427° SSW35.251°2025-02-05 14:29:59.865Z140.06° SSE
|